Centerville, IA

7:44 PM CST on December 11, 2017 (GMT -0600)
Centerville Municipal

Weather History for KTVK - November, 2011

Change the Weather History Date:

Wednesday, November 2, 2011

  Actual Average Record
Temperature  
Mean Temperature 48 °F -  
Max Temperature 62 °F 54 °F 76 °F (1964)
Min Temperature 35 °F 39 °F 12 °F (1951)
Degree Days  
Heating Degree Days 16    
Moisture  
Dew Point 40 °F    
Average Humidity 78    
Maximum Humidity 100    
Minimum Humidity 45    
Precipitation  
Precipitation 0.00 in - - ()
Sea Level Pressure  
Sea Level Pressure 30.02 in    
Wind  
Wind Speed 13 mph (North)    
Max Wind Speed 26 mph    
Max Gust Speed 34 mph    
Visibility 8 miles    
Events Rain , Snow    
Averages and records for this station are not official NWS values.
T = Trace of Precipitation, MM = Missing Value Source: NWS Daily Summary

Daily Weather History Graph

Daily Weather History Graph

Search for Another Location

Airport or City:

Trip Planner

Search our weather history database for the weather conditions in past years. The results will help you decide how hot, cold, wet, or windy it might be!

Date:

Astronomy

Nov. 02, 2011 Rise Set
Actual Time 7:42 AM CDT 6:07 PM CDT
Civil Twilight 7:14 AM CDT 6:35 PM CDT
Nautical Twilight 6:41 AM CDT 7:07 PM CDT
Astronomical Twilight 6:10 AM CDT 7:39 PM CDT
Moon 2:02 PM CDT (11/2) No Moon Set
Length of Visible Light 11h 21m
Length of Day
10h 24m
Waxing Crescent, 50% of the Moon is Illuminated
Nov 2
Waxing Crescent
Nov 10
Full
Nov 18
Last Quarter
Nov 25
New
Dec 2
First Quarter

Hourly Weather History & Observations

Time (CDT) Temp. Windchill Dew Point Humidity Pressure Visibility Wind Dir Wind Speed Gust Speed Precip Events Conditions
12:15 AM 62.6 °F - 44.6 °F 52% 29.95 in 10.0 mi South 11.5 mph - N/A   Clear
12:35 AM 62.6 °F - 44.6 °F 52% 29.95 in 10.0 mi South 12.7 mph - N/A   Partly Cloudy
12:55 AM 62.6 °F - 44.6 °F 52% 29.95 in 10.0 mi South 11.5 mph 18.4 mph N/A   Partly Cloudy
1:15 AM 60.8 °F - 44.6 °F 55% 29.95 in 10.0 mi South 12.7 mph - N/A   Clear
1:35 AM 60.8 °F - 42.8 °F 52% 29.95 in 10.0 mi South 12.7 mph 18.4 mph N/A   Partly Cloudy
1:55 AM 62.6 °F - 42.8 °F 48% 29.95 in 10.0 mi South 12.7 mph - N/A   Scattered Clouds
2:15 AM 62.6 °F - 41.0 °F 45% 29.96 in 10.0 mi South 11.5 mph - N/A   Mostly Cloudy
2:35 AM 62.6 °F - 41.0 °F 45% 29.96 in 10.0 mi South 12.7 mph - N/A   Mostly Cloudy
2:55 AM 60.8 °F - 41.0 °F 48% 29.97 in 10.0 mi South 12.7 mph 20.7 mph N/A   Mostly Cloudy
3:15 AM 60.8 °F - 41.0 °F 48% 29.97 in 10.0 mi South 10.4 mph - N/A   Scattered Clouds
3:35 AM 60.8 °F - 41.0 °F 48% 29.97 in 10.0 mi South 10.4 mph - N/A   Scattered Clouds
3:55 AM 59.0 °F - 41.0 °F 51% 29.97 in 10.0 mi South 10.4 mph - N/A   Scattered Clouds
5:55 AM 57.2 °F - 39.2 °F 51% 29.98 in 10.0 mi South 10.4 mph - N/A   Scattered Clouds
6:35 AM 57.2 °F - 41.0 °F 55% 30.00 in 10.0 mi West 5.8 mph - N/A   Partly Cloudy
7:35 AM 48.2 °F - 37.4 °F 66% 30.00 in 10.0 mi NNW 8.1 mph - N/A   Partly Cloudy
7:55 AM 48.2 °F - 37.4 °F 66% 30.02 in 10.0 mi NNW 8.1 mph - N/A   Partly Cloudy
8:15 AM 48.2 °F - 37.4 °F 66% 30.03 in 10.0 mi NNW 6.9 mph - N/A   Clear
8:35 AM 48.2 °F - 37.4 °F 66% 30.04 in 10.0 mi NNW 4.6 mph - N/A   Partly Cloudy
8:55 AM 48.2 °F - 37.4 °F 66% 30.04 in 10.0 mi NNW 6.9 mph - N/A   Partly Cloudy
9:15 AM 48.2 °F - 37.4 °F 66% 30.05 in 10.0 mi NNW 8.1 mph - N/A   Scattered Clouds
9:35 AM 48.2 °F - 37.4 °F 66% 30.04 in 10.0 mi North 8.1 mph - N/A   Mostly Cloudy
9:55 AM 48.2 °F - 39.2 °F 71% 30.03 in 10.0 mi North 10.4 mph - N/A   Partly Cloudy
10:15 AM 48.2 °F - 39.2 °F 71% 30.03 in 10.0 mi NNW 9.2 mph - N/A   Clear
10:55 AM 48.2 °F - 39.2 °F 71% 30.03 in 10.0 mi North 12.7 mph - N/A   Partly Cloudy
11:15 AM 48.2 °F - 39.2 °F 71% 30.03 in 10.0 mi North 12.7 mph - N/A   Partly Cloudy
11:35 AM 48.2 °F - 39.2 °F 71% 30.02 in 10.0 mi North 9.2 mph - N/A   Mostly Cloudy
11:55 AM 48.2 °F - 41.0 °F 76% 30.03 in 10.0 mi North 10.4 mph - N/A   Mostly Cloudy
12:15 PM 48.2 °F - 41.0 °F 76% 30.01 in 10.0 mi North 11.5 mph - N/A   Overcast
12:35 PM 48.2 °F - 41.0 °F 76% 30.01 in 10.0 mi North 9.2 mph - N/A Rain Light Rain
12:55 PM 46.4 °F 41.9 °F 44.6 °F 93% 30.01 in 6.0 mi North 9.2 mph - N/A Rain Light Rain
1:15 PM 46.4 °F 40.7 °F 44.6 °F 93% 30.03 in 9.0 mi NNW 12.7 mph - N/A   Overcast
1:35 PM 46.4 °F 40.4 °F 44.6 °F 93% 30.03 in 2.0 mi NNW 13.8 mph - N/A Rain Light Rain
1:55 PM 46.4 °F 40.7 °F 44.6 °F 93% 30.00 in 9.0 mi North 12.7 mph - N/A   Overcast
2:15 PM 46.4 °F 40.1 °F 44.6 °F 93% 30.01 in 10.0 mi NNW 15.0 mph - N/A   Overcast
2:35 PM 44.6 °F 38.1 °F 44.6 °F 100% 30.00 in 10.0 mi North 13.8 mph 17.3 mph N/A   Overcast
2:55 PM 44.6 °F 37.4 °F 44.6 °F 100% 30.03 in 10.0 mi North 16.1 mph 21.9 mph N/A Rain Light Rain
3:15 PM 44.6 °F 37.8 °F 42.8 °F 93% 30.03 in 10.0 mi North 15.0 mph 23.0 mph N/A Rain Light Rain
3:35 PM 44.6 °F 38.8 °F 42.8 °F 93% 30.03 in 7.0 mi North 11.5 mph - N/A Rain Light Rain
3:55 PM 42.8 °F 34.3 °F 41.0 °F 93% 30.07 in 9.0 mi NNW 19.6 mph 25.3 mph N/A Rain Light Rain
4:15 PM 42.8 °F 34.5 °F 41.0 °F 93% 30.04 in 10.0 mi North 18.4 mph 25.3 mph N/A Rain Light Rain
4:55 PM 41.0 °F 31.9 °F 39.2 °F 93% 30.07 in 4.0 mi North 19.6 mph 26.5 mph N/A Rain Light Rain
5:15 PM 39.2 °F 28.3 °F 39.2 °F 100% 30.06 in 7.0 mi North 25.3 mph 28.8 mph N/A   Overcast
5:35 PM 39.2 °F 29.6 °F 39.2 °F 100% 30.04 in 2.0 mi North 19.6 mph 32.2 mph N/A   Overcast
5:55 PM 39.2 °F 29.0 °F 37.4 °F 93% 30.04 in 4.0 mi North 21.9 mph 29.9 mph N/A Rain Light Rain
6:15 PM 39.2 °F 29.0 °F 37.4 °F 93% 30.03 in 7.0 mi North 21.9 mph 29.9 mph N/A Rain Light Rain
6:35 PM 39.2 °F 28.7 °F 37.4 °F 93% 30.05 in 3.0 mi North 23.0 mph 31.1 mph N/A   Overcast
6:55 PM 39.2 °F 28.0 °F 37.4 °F 93% 30.06 in 2.5 mi North 26.5 mph 31.1 mph N/A   Overcast
7:35 PM 37.4 °F 26.6 °F 37.4 °F 100% 30.06 in 2.5 mi North 21.9 mph 31.1 mph N/A Rain Light Rain
7:55 PM 37.4 °F 26.1 °F 37.4 °F 100% 30.05 in 3.0 mi North 24.2 mph 29.9 mph N/A Rain Light Rain
8:15 PM 37.4 °F 26.6 °F 37.4 °F 100% 30.04 in 3.0 mi North 21.9 mph 32.2 mph N/A   Overcast
8:35 PM 37.4 °F 26.4 °F 37.4 °F 100% 30.03 in 4.0 mi North 23.0 mph 34.5 mph N/A   Overcast
9:15 PM 37.4 °F 27.2 °F 37.4 °F 100% 30.07 in 3.0 mi North 19.6 mph 31.1 mph N/A Rain Heavy Rain
9:35 PM 37.4 °F 28.5 °F 37.4 °F 100% 30.07 in 3.0 mi NNE 15.0 mph 26.5 mph N/A Rain Heavy Rain
9:55 PM 37.4 °F 27.8 °F 37.4 °F 100% 30.09 in 5.0 mi NNE 17.3 mph 24.2 mph N/A   Overcast
10:35 PM 37.4 °F 27.2 °F 37.4 °F 100% 30.07 in 6.0 mi NNE 19.6 mph 28.8 mph N/A   Overcast
11:15 PM 35.6 °F 25.2 °F 35.6 °F 100% 30.08 in 4.0 mi North 18.4 mph 26.5 mph N/A Rain Light Rain
11:35 PM 35.6 °F 24.5 °F 35.6 °F 100% 30.06 in 7.0 mi North 20.7 mph 29.9 mph N/A   Overcast
11:55 PM 35.6 °F 25.5 °F 35.6 °F 100% 30.05 in 10.0 mi NNE 17.3 mph 28.8 mph N/A Snow Light Snow